Home   Weather   Chinle   Past weeks

Flag for USA Past Weather in Chinle, Arizona, USA — Yesterday and Last 2 Weeks

Now
25 °F

Sunny.


Feels Like: 21 °F
Forecast: 24 / 54 °F
Wind: 3 mph from North

Location: Window Rock Airport

Current Time: Dec 5, 2016 at 9:43:46 am

Latest Report: Dec 5, 2016 at 8:53 am


Visibility: 10 mi

Pressure: 29.94 "Hg (24.20 "Hg at 1678m altitude)

Humidity: 75%

Dew Point: 18 °F

Location of ChinleLocation

Past Weather in Chinle — Graph

°F

Chinle Temperature Yesterday

Maximum temperature yesterday: 47 °F (at 1:53 pm)
Minimum temperature yesterday: 10 °F (at 6:53 am)
Average temperature yesterday: 27 °F

High & Low Weather Summary for the Past Weeks

 TemperatureHumidityPressure
High54 °F (Nov 23, 1:53 pm)89% (Nov 28, 4:02 pm)30.47 "Hg (Nov 28, 4:02 pm)
Low2 °F (Nov 30, 6:53 am)20% (Nov 24, 12:53 pm)29.56 "Hg (Nov 28, 1:53 pm)
Average30 °F65%30.01 "Hg
* Reported Nov 21 9:53 am — Dec 5 7:53 am, Chinle, Weather by CustomWeather, © 2016

Note: Actual official high and low records may vary slightly from our data, if they occured in-between our weather recording intervals... More about our weather records

Advertising

Chinle Weather History for the Previous 24 Hours

Scroll right to see more
 ConditionsComfort  
Time TempWeatherWind HumidityBarometerVisibility
7:53 am
Mon, Dec 5
19 °FSunny.3 mph77%29.96 "Hg10 mi
6:53 am16 °FClear.No wind80%29.95 "Hg10 mi
5:53 am18 °FClear.No wind77%29.94 "Hg10 mi
4:53 am19 °FClear.No wind77%29.90 "Hg10 mi
3:53 am19 °FClear.No wind81%29.91 "Hg10 mi
2:53 am19 °FClear.No wind81%29.93 "Hg10 mi
1:53 am20 °FClear.No wind78%29.95 "Hg10 mi
12:53 am20 °FClear.No wind78%29.98 "Hg10 mi
11:53 pm
Sun, Dec 4
21 °FClear.No wind78%30.00 "Hg10 mi
10:53 pm22 °FClear.No wind78%30.04 "Hg10 mi
9:53 pm22 °FClear.No wind82%30.09 "Hg10 mi
8:53 pm26 °FClear.No wind71%30.11 "Hg10 mi
7:53 pm26 °FClear.No wind71%30.17 "Hg10 mi
6:53 pm36 °FClear.No wind50%30.13 "Hg10 mi
5:53 pm32 °FClear.3 mph61%30.12 "Hg10 mi
4:53 pm42 °FSunny.3 mph39%30.06 "Hg10 mi
3:53 pm47 °FSunny.3 mph33%30.03 "Hg10 mi
2:53 pm47 °FSunny.5 mph34%30.05 "Hg10 mi
1:53 pm47 °FSunny.8 mph28%30.07 "Hg10 mi
12:53 pm44 °FSunny.7 mph32%30.10 "Hg10 mi
11:53 am43 °FSunny.6 mph32%30.12 "Hg10 mi
10:53 am36 °FSunny.No wind40%30.15 "Hg10 mi
9:53 am31 °FSunny.No wind49%30.21 "Hg10 mi
Weather by CustomWeather, © 2016

See weather overviewHow to use our weather pages